Time,TemperatureF,DewpointF,PressureIn,WindDirection,WindDirectionDegrees,WindSpeedMPH,WindSpeedGustMPH,Humidity,HourlyPrecipIn,Conditions,Clouds,dailyrainin,SoftwareType,DateUTC
2014-04-17 00:01:00,58.2,44.3,29.86,NE,44,1.0,2.0,60,0.00,,,0.00,Weather View 32 v70,2014-04-17 07:01:00,
2014-04-17 00:06:00,57.6,44.2,29.86,NE,44,1.0,2.0,61,0.00,,,0.00,Weather View 32 v70,2014-04-17 07:06:00,
2014-04-17 00:11:00,57.0,43.7,29.86,NE,46,2.0,2.0,61,0.00,,,0.00,Weather View 32 v70,2014-04-17 07:11:00,
2014-04-17 00:16:00,56.7,42.9,29.86,NE,46,2.0,3.0,60,0.00,,,0.00,Weather View 32 v70,2014-04-17 07:16:00,
2014-04-17 00:21:00,56.8,43.0,29.86,NE,46,2.0,3.0,60,0.00,,,0.00,Weather View 32 v70,2014-04-17 07:21:00,
2014-04-17 00:26:00,56.9,43.1,29.86,NE,46,2.0,3.0,60,0.00,,,0.00,Weather View 32 v70,2014-04-17 07:26:00,
2014-04-17 00:31:00,57.1,42.4,29.86,NE,49,2.0,3.0,58,0.00,,,0.00,Weather View 32 v70,2014-04-17 07:31:00,
2014-04-17 00:36:00,57.2,43.0,29.86,NE,49,2.0,3.0,59,0.00,,,0.00,Weather View 32 v70,2014-04-17 07:36:00,
2014-04-17 00:41:00,57.2,42.5,29.85,NE,49,2.0,3.0,58,0.00,,,0.00,Weather View 32 v70,2014-04-17 07:41:00,
2014-04-17 00:46:00,57.5,42.4,29.85,NE,47,2.0,3.0,57,0.00,,,0.00,Weather View 32 v70,2014-04-17 07:46:00,
2014-04-17 00:51:00,57.6,42.0,29.85,NE,46,2.0,3.0,56,0.00,,,0.00,Weather View 32 v70,2014-04-17 07:51:00,
2014-04-17 00:56:00,57.5,42.4,29.85,NE,47,2.0,3.0,57,0.00,,,0.00,Weather View 32 v70,2014-04-17 07:56:00,
2014-04-17 01:01:00,57.3,42.2,29.84,NE,44,2.0,3.0,57,0.00,,,0.00,Weather View 32 v70,2014-04-17 08:01:00,
2014-04-17 01:06:00,57.2,41.6,29.84,NE,38,2.0,3.0,56,0.00,,,0.00,Weather View 32 v70,2014-04-17 08:06:00,
2014-04-17 01:11:00,57.2,42.1,29.84,NE,36,2.0,3.0,57,0.00,,,0.00,Weather View 32 v70,2014-04-17 08:11:00,
2014-04-17 01:16:00,57.1,41.5,29.84,NE,40,2.0,3.0,56,0.00,,,0.00,Weather View 32 v70,2014-04-17 08:16:00,
2014-04-17 01:21:00,57.1,41.5,29.84,NE,40,1.0,3.0,56,0.00,,,0.00,Weather View 32 v70,2014-04-17 08:21:00,
2014-04-17 01:26:00,57.1,41.5,29.84,NE,40,2.0,3.0,56,0.00,,,0.00,Weather View 32 v70,2014-04-17 08:26:00,
2014-04-17 01:31:00,57.1,41.5,29.84,NE,40,1.0,3.0,56,0.00,,,0.00,Weather View 32 v70,2014-04-17 08:31:00,
2014-04-17 01:36:00,57.1,41.5,29.84,NE,39,2.0,3.0,56,0.00,,,0.00,Weather View 32 v70,2014-04-17 08:36:00,
2014-04-17 01:41:00,57.2,41.6,29.84,NE,37,1.0,3.0,56,0.00,,,0.00,Weather View 32 v70,2014-04-17 08:41:00,
2014-04-17 01:46:00,57.3,41.7,29.84,NE,41,1.0,3.0,56,0.00,,,0.00,Weather View 32 v70,2014-04-17 08:46:00,
2014-04-17 01:51:00,57.1,42.0,29.83,NE,41,2.0,3.0,57,0.00,,,0.00,Weather View 32 v70,2014-04-17 08:51:00,
2014-04-17 01:56:00,57.0,41.4,29.83,NE,41,2.0,3.0,56,0.00,,,0.00,Weather View 32 v70,2014-04-17 08:56:00,
2014-04-17 02:01:00,57.0,41.4,29.83,NE,43,2.0,3.0,56,0.00,,,0.00,Weather View 32 v70,2014-04-17 09:01:00,
2014-04-17 02:06:00,57.0,41.4,29.83,NE,43,1.0,3.0,56,0.00,,,0.00,Weather View 32 v70,2014-04-17 09:06:00,
2014-04-17 02:11:00,57.1,40.6,29.83,NE,43,1.0,3.0,54,0.00,,,0.00,Weather View 32 v70,2014-04-17 09:11:00,
2014-04-17 02:16:00,57.5,40.5,29.82,NE,43,2.0,3.0,53,0.00,,,0.00,Weather View 32 v70,2014-04-17 09:16:00,
2014-04-17 02:22:00,57.8,40.7,29.82,NE,43,2.0,3.0,53,0.00,,,0.00,Weather View 32 v70,2014-04-17 09:22:00,
2014-04-17 02:26:00,57.8,40.2,29.82,NE,43,1.0,3.0,52,0.00,,,0.00,Weather View 32 v70,2014-04-17 09:26:00,
2014-04-17 02:31:00,57.7,40.6,29.82,NE,44,2.0,3.0,53,0.00,,,0.00,Weather View 32 v70,2014-04-17 09:31:00,
2014-04-17 02:36:00,57.5,41.4,29.82,NE,43,1.0,3.0,55,0.00,,,0.00,Weather View 32 v70,2014-04-17 09:36:00,
2014-04-17 02:41:00,57.3,40.8,29.82,NE,44,1.0,3.0,54,0.00,,,0.00,Weather View 32 v70,2014-04-17 09:41:00,
2014-04-17 02:46:00,57.5,40.5,29.82,NE,44,2.0,3.0,53,0.00,,,0.00,Weather View 32 v70,2014-04-17 09:46:00,
2014-04-17 02:51:00,57.2,41.6,29.82,NE,44,1.0,3.0,56,0.00,,,0.00,Weather View 32 v70,2014-04-17 09:51:00,
2014-04-17 02:56:00,57.1,40.6,29.82,NE,44,1.0,3.0,54,0.00,,,0.00,Weather View 32 v70,2014-04-17 09:56:00,
2014-04-17 03:01:00,57.2,41.1,29.82,NE,44,1.0,3.0,55,0.00,,,0.00,Weather View 32 v70,2014-04-17 10:01:00,
2014-04-17 03:06:00,56.9,42.2,29.82,NE,44,1.0,3.0,58,0.00,,,0.00,Weather View 32 v70,2014-04-17 10:06:00,
2014-04-17 03:11:00,56.5,41.0,29.82,NE,44,2.0,3.0,56,0.00,,,0.00,Weather View 32 v70,2014-04-17 10:11:00,
2014-04-17 03:16:00,56.6,41.1,29.82,NE,45,2.0,3.0,56,0.00,,,0.00,Weather View 32 v70,2014-04-17 10:16:00,
2014-04-17 03:21:00,56.7,40.7,29.82,NE,46,2.0,3.0,55,0.00,,,0.00,Weather View 32 v70,2014-04-17 10:21:00,
2014-04-17 03:26:00,56.5,41.0,29.81,NE,47,2.0,3.0,56,0.00,,,0.00,Weather View 32 v70,2014-04-17 10:26:00,
2014-04-17 03:31:00,56.3,40.8,29.81,NE,47,2.0,3.0,56,0.00,,,0.00,Weather View 32 v70,2014-04-17 10:31:00,
2014-04-17 03:36:00,56.0,40.9,29.81,NE,45,2.0,3.0,57,0.00,,,0.00,Weather View 32 v70,2014-04-17 10:36:00,
2014-04-17 03:41:00,56.1,40.6,29.81,NE,45,2.0,3.0,56,0.00,,,0.00,Weather View 32 v70,2014-04-17 10:41:00,
2014-04-17 03:46:00,56.2,40.2,29.81,NE,46,2.0,3.0,55,0.00,,,0.00,Weather View 32 v70,2014-04-17 10:46:00,
2014-04-17 03:51:00,56.1,40.6,29.81,NE,37,2.0,3.0,56,0.00,,,0.00,Weather View 32 v70,2014-04-17 10:51:00,
2014-04-17 03:56:00,55.9,40.4,29.81,NNE,33,1.0,3.0,56,0.00,,,0.00,Weather View 32 v70,2014-04-17 10:56:00,
2014-04-17 04:01:00,55.8,40.8,29.81,NNE,33,1.0,3.0,57,0.00,,,0.00,Weather View 32 v70,2014-04-17 11:01:00,
2014-04-17 04:06:00,55.7,41.1,29.81,NNE,33,2.0,3.0,58,0.00,,,0.00,Weather View 32 v70,2014-04-17 11:06:00,
2014-04-17 04:11:00,55.1,42.3,29.81,NNE,32,2.0,3.0,62,0.00,,,0.00,Weather View 32 v70,2014-04-17 11:11:00,
2014-04-17 04:16:00,54.0,41.7,29.81,NNE,32,1.0,3.0,63,0.00,,,0.00,Weather View 32 v70,2014-04-17 11:16:00,
2014-04-17 04:21:00,53.8,41.9,29.81,NNE,32,1.0,3.0,64,0.00,,,0.00,Weather View 32 v70,2014-04-17 11:21:00,
2014-04-17 04:26:00,54.0,42.1,29.81,NE,41,2.0,3.0,64,0.00,,,0.00,Weather View 32 v70,2014-04-17 11:26:00,
2014-04-17 04:31:00,53.0,42.3,29.81,ENE,57,2.0,3.0,67,0.00,,,0.00,Weather View 32 v70,2014-04-17 11:31:00,
2014-04-17 04:36:00,52.2,40.8,29.81,NE,54,3.0,3.0,65,0.00,,,0.00,Weather View 32 v70,2014-04-17 11:36:00,
2014-04-17 04:41:00,53.1,40.8,29.80,NE,54,2.0,3.0,63,0.00,,,0.00,Weather View 32 v70,2014-04-17 11:41:00,
2014-04-17 04:46:00,53.9,40.3,29.80,NE,49,3.0,3.0,60,0.00,,,0.00,Weather View 32 v70,2014-04-17 11:46:00,
2014-04-17 04:51:00,54.8,40.3,29.80,NE,47,2.0,3.0,58,0.00,,,0.00,Weather View 32 v70,2014-04-17 11:51:00,
2014-04-17 04:56:00,55.1,40.1,29.80,NE,47,2.0,3.0,57,0.00,,,0.00,Weather View 32 v70,2014-04-17 11:56:00,
2014-04-17 05:01:00,55.2,40.7,29.80,NE,46,2.0,3.0,58,0.00,,,0.00,Weather View 32 v70,2014-04-17 12:01:00,
2014-04-17 05:06:00,55.2,40.2,29.80,NE,44,2.0,3.0,57,0.00,,,0.00,Weather View 32 v70,2014-04-17 12:06:00,
2014-04-17 05:11:00,55.4,39.9,29.80,NNE,33,2.0,3.0,56,0.00,,,0.00,Weather View 32 v70,2014-04-17 12:11:00,
2014-04-17 05:16:00,55.7,39.7,29.80,NE,37,3.0,3.0,55,0.00,,,0.00,Weather View 32 v70,2014-04-17 12:16:00,
2014-04-17 05:21:00,55.8,40.3,29.80,NE,43,2.0,3.0,56,0.00,,,0.00,Weather View 32 v70,2014-04-17 12:21:00,
2014-04-17 05:26:00,55.6,40.6,29.80,NE,41,2.0,3.0,57,0.00,,,0.00,Weather View 32 v70,2014-04-17 12:26:00,
2014-04-17 05:31:00,55.4,40.8,29.80,NE,46,2.0,3.0,58,0.00,,,0.00,Weather View 32 v70,2014-04-17 12:31:00,
2014-04-17 05:36:00,55.1,40.6,29.80,NE,41,2.0,3.0,58,0.00,,,0.00,Weather View 32 v70,2014-04-17 12:36:00,
2014-04-17 05:41:00,55.2,40.2,29.80,NE,34,2.0,3.0,57,0.00,,,0.00,Weather View 32 v70,2014-04-17 12:41:00,
2014-04-17 05:46:00,55.4,40.4,29.80,NE,38,1.0,3.0,57,0.00,,,0.00,Weather View 32 v70,2014-04-17 12:46:00,
2014-04-17 05:51:00,55.1,40.6,29.79,NE,38,1.0,3.0,58,0.00,,,0.00,Weather View 32 v70,2014-04-17 12:51:00,
2014-04-17 05:56:00,54.8,40.7,29.79,NE,37,2.0,3.0,59,0.00,,,0.00,Weather View 32 v70,2014-04-17 12:56:00,
2014-04-17 06:01:00,54.6,41.4,29.80,NE,37,1.0,3.0,61,0.00,,,0.00,Weather View 32 v70,2014-04-17 13:01:00,
2014-04-17 06:06:00,54.4,40.8,29.80,NE,38,1.0,3.0,60,0.00,,,0.00,Weather View 32 v70,2014-04-17 13:06:00,
2014-04-17 06:11:00,54.5,40.4,29.80,NE,40,1.0,3.0,59,0.00,,,0.00,Weather View 32 v70,2014-04-17 13:11:00,
2014-04-17 06:16:00,54.6,40.5,29.80,NE,41,2.0,3.0,59,0.00,,,0.00,Weather View 32 v70,2014-04-17 13:16:00,
2014-04-17 06:21:00,54.8,40.3,29.80,NE,46,3.0,3.0,58,0.00,,,0.00,Weather View 32 v70,2014-04-17 13:21:00,
2014-04-17 06:26:00,54.9,40.8,29.79,NE,46,2.0,3.0,59,0.00,,,0.00,Weather View 32 v70,2014-04-17 13:26:00,
2014-04-17 06:31:00,54.9,40.8,29.79,NE,52,2.0,3.0,59,0.00,,,0.00,Weather View 32 v70,2014-04-17 13:31:00,
2014-04-17 06:36:00,54.6,41.4,29.79,NE,54,2.0,3.0,61,0.00,,,0.00,Weather View 32 v70,2014-04-17 13:36:00,
2014-04-17 06:41:00,54.5,40.9,29.79,NE,53,1.0,3.0,60,0.00,,,0.00,Weather View 32 v70,2014-04-17 13:41:00,
2014-04-17 06:46:00,54.4,41.2,29.79,NE,53,0.0,3.0,61,0.00,,,0.00,Weather View 32 v70,2014-04-17 13:46:00,